GW7215 Weather Reports


time (UTC)temp
C
wind
direction
speed
KPH
gust
KPH
rain 1hr
cm
rain 24hr
cm
rain mn
cm
humidity
%
barometer
mb
20260906234546 35 71 6.4 14.5 0.00 0.00 0.00 47 1014.1
20260906233050 35 82 8.0 19.3 0.00 0.00 0.00 48 1014.0
20260906231555 36 111 4.8 17.7 0.00 0.00 0.00 47 1014.1
20260906230055 36 71 11.3 27.4 0.00 0.00 0.00 47 1014.1
20260906224548 36 65 12.9 25.7 0.00 0.00 0.00 46 1014.0
20260906223057 36 130 11.3 20.9 0.00 0.00 0.00 46 1014.0
20260906221546 37 74 9.7 20.9 0.00 0.00 0.00 45 1014.0
20260906220051 37 96 8.0 16.1 0.00 0.00 0.00 44 1014.1
20260906214604 36 77 11.3 19.3 0.00 0.00 0.00 46 1014.3
20260906213049 37 44 12.9 24.1 0.00 0.00 0.00 44 1014.4
20260906211551 36 139 4.8 16.1 0.00 0.00 0.00 46 1014.5
20260906210111 37 344 9.7 22.5 0.00 0.00 0.00 44 1014.7
20260906204553 36 78 6.4 17.7 0.00 0.00 0.00 46 1014.8
20260906203055 36 169 4.8 20.9 0.00 0.00 0.00 46 1014.9
20260906201555 36 79 6.4 17.7 0.00 0.00 0.00 47 1015.1
20260906200044 35 130 4.8 20.9 0.00 0.00 0.00 48 1015.3
20260906194549 35 59 6.4 16.1 0.00 0.00 0.00 49 1015.4
20260906193050 36 86 11.3 19.3 0.00 0.00 0.00 49 1015.4
20260906191601 36 140 12.9 27.4 0.00 0.00 0.00 49 1015.7
20260906190054 36 42 8.0 24.1 0.00 0.00 0.00 49 1016.0
20260906184552 35 76 6.4 22.5 0.00 0.00 0.00 52 1016.2
20260906183048 35 47 8.0 22.5 0.00 0.00 0.00 51 1016.4
20260906181549 35 91 8.0 19.3 0.00 0.00 0.00 50 1016.7
20260906180112 35 111 6.4 17.7 0.00 0.00 0.00 51 1016.6
20260906174558 35 10 6.4 19.3 0.00 0.00 0.00 53 1016.9
20260906173046 35 38 8.0 17.7 0.00 0.00 0.00 54 1017.1
20260906171544 34 49 9.7 17.7 0.00 0.00 0.00 55 1017.4
20260906170053 33 69 9.7 19.3 0.00 0.00 0.00 59 1017.5
20260906164549 33 197 6.4 16.1 0.00 0.00 0.00 59 1017.6
20260906163055 33 106 6.4 16.1 0.00 0.00 0.00 61 1017.7
20260906161543 32 64 4.8 17.7 0.00 0.00 0.00 65 1017.7
20260906160053 31 52 3.2 14.5 0.00 0.00 0.00 68 1017.8
20260906154552 31 53 3.2 11.3 0.00 0.00 0.00 70 1017.6
20260906153110 30 121 3.2 11.3 0.00 0.00 0.00 72 1017.7
20260906151554 30 142 3.2 8.0 0.00 0.00 0.00 74 1017.6
20260906150050 29 146 4.8 12.9 0.00 0.00 0.00 76 1017.5
20260906144552 28 132 4.8 11.3 0.00 0.00 0.00 78 1017.7
20260906143049 28 142 6.4 12.9 0.00 0.00 0.00 79 1017.5
20260906141554 27 119 3.2 9.7 0.00 0.00 0.00 81 1017.5
20260906140048 27 81 3.2 9.7 0.00 0.00 0.00 83 1017.5
20260906134607 26 104 1.6 9.7 0.00 0.00 0.00 85 1017.5
20260906133054 26 100 3.2 9.7 0.00 0.00 0.00 86 1017.2
20260906131546 25 75 3.2 9.7 0.00 0.00 0.00 88 1017.3
20260906130048 25 103 0.0 4.8 0.00 0.00 0.00 88 1017.1
20260906124553 24 0 0.0 0.0 0.00 0.00 0.00 88 1017.0
20260906123056 23 0 0.0 3.2 0.00 0.00 0.00 88 1016.8
20260906121546 23 79 0.0 4.8 0.00 0.00 0.00 87 1016.8
20260906120052 23 0 0.0 0.0 0.00 0.00 0.00 87 1016.7
20260906114552 23 0 0.0 0.0 0.00 0.00 0.00 86 1016.6
20260906113049 23 0 0.0 0.0 0.00 0.00 0.00 86 1016.8
20260906111550 24 0 0.0 0.0 0.00 0.00 0.00 85 1016.4
20260906110053 24 0 0.0 0.0 0.00 0.00 0.00 85 1016.3
20260906104553 24 0 0.0 0.0 0.00 0.00 0.00 85 1016.3
20260906103101 24 0 0.0 0.0 0.00 0.00 0.00 85 1016.3
20260906101545 25 86 0.0 4.8 0.00 0.00 0.00 85 1016.0
20260906100100 25 0 0.0 3.2 0.00 0.00 0.00 84 1015.8
20260906094552 25 0 1.6 4.8 0.00 0.00 0.00 83 1015.8
20260906093052 25 90 0.0 4.8 0.00 0.00 0.00 83 1015.5
20260906091545 25 0 0.0 4.8 0.00 0.00 0.00 83 1015.4
20260906090111 25 0 0.0 4.8 0.00 0.00 0.00 83 1015.6
20260906084549 25 0 0.0 0.0 0.00 0.00 0.00 82 1015.5
20260906083051 25 0 0.0 6.4 0.00 0.00 0.00 82 1015.5
20260906081553 25 74 1.6 4.8 0.00 0.00 0.00 81 1015.8
20260906080046 26 0 0.0 0.0 0.00 0.00 0.00 80 1015.7
20260906074605 26 0 0.0 0.0 0.00 0.00 0.00 79 1015.6
20260906073105 26 169 1.6 6.4 0.00 0.00 0.00 80 1015.6
20260906071548 26 146 3.2 9.7 0.00 0.00 0.00 79 1016.0
20260906070045 26 149 4.8 11.3 0.00 0.00 0.00 78 1016.0
20260906064551 27 146 6.4 12.9 0.00 0.00 0.00 78 1016.2
20260906063051 27 102 6.4 14.5 0.00 0.00 0.00 77 1016.3
20260906061550 27 138 8.0 14.5 0.00 0.00 0.00 77 1016.4
20260906060044 27 132 4.8 9.7 0.00 0.00 0.00 77 1016.4
20260906054550 27 119 1.6 8.0 0.00 0.00 0.00 77 1016.4
20260906053049 27 107 3.2 9.7 0.00 0.00 0.00 77 1016.2
20260906051558 27 0 0.0 4.8 0.00 0.00 0.00 76 1016.1
20260906050107 27 164 1.6 4.8 0.00 0.00 0.00 76 1016.1
20260906044553 28 90 0.0 4.8 0.00 0.00 0.00 76 1016.2
20260906043053 28 0 0.0 8.0 0.00 0.00 0.00 75 1016.1
20260906041547 28 100 1.6 6.4 0.00 0.00 0.00 74 1016.1
20260906040054 28 111 0.0 4.8 0.00 0.00 0.00 73 1015.9
20260906034608 28 160 3.2 9.7 0.00 0.00 0.00 73 1015.9
20260906033048 29 0 1.6 6.4 0.00 0.00 0.00 73 1016.1
20260906031547 29 131 1.6 6.4 0.00 0.00 0.00 73 1016.1
20260906030052 29 104 3.2 12.9 0.00 0.00 0.00 72 1016.1
20260906024549 29 107 3.2 9.7 0.00 0.00 0.00 72 1016.1
20260906023047 30 90 3.2 12.9 0.00 0.00 0.00 71 1015.7
20260906021543 30 77 3.2 11.3 0.00 0.00 0.00 70 1015.5
20260906020105 30 92 6.4 14.5 0.00 0.00 0.00 69 1015.3
20260906014549 30 119 4.8 16.1 0.00 0.00 0.00 68 1015.1
20260906013102 30 76 6.4 16.1 0.00 0.00 0.00 67 1014.9
20260906011549 31 132 4.8 20.9 0.00 0.00 0.00 66 1014.7
20260906010052 31 119 9.7 20.9 0.00 0.00 0.00 64 1014.8
20260906004545 32 90 11.3 20.9 0.00 0.00 0.00 60 1014.7
20260906003048 34 137 9.7 25.7 0.00 0.00 0.00 54 1014.7
20260906001548 35 70 3.2 14.5 0.00 0.00 0.00 48 1014.3
20260906000055 35 101 3.2 14.5 0.00 0.00 0.00 47 1014.2